QPF
0.05 0.03 0.02 0.02 0.01 0.01 0.00 0.00 0.00 0.00 0.00 0.00 0.00 0.00 0.00 0.00 0.00 0.00 0.00 0.00 0.00 0.00 0.00 0.00 0.00 0.00 0.00 0.00 0.01 0.00 0.00 0.00 0.00 0.01 0.01 0.01 0.00 0.00 0.00 0.00 0.00 0.00 0.00
0.06 0.05 0.04 0.02 0.01 0.01 0.00 0.00 0.00 0.00 0.00 0.00 0.00 0.00 0.00 0.00 0.00 0.00 0.00 0.00 0.00 0.00 0.00 0.00 0.00 0.00 0.00 0.01 0.01 0.01 0.01 0.00 0.00 0.00 0.01 0.01 0.01 0.01 0.00 0.00 0.00 0.00 0.00
0.07 0.06 0.04 0.03 0.02 0.01 0.00 0.00 0.00 0.00 0.00 0.00 0.00 0.00 0.00 0.00 0.00 0.00 0.00 0.00 0.00 0.00 0.00 0.00 0.00 0.00 0.00 0.00 0.01 0.01 0.01 0.01 0.01 0.01 0.00 0.01 0.01 0.01 0.01 0.01 0.01 0.01 0.00
0.10 0.07 0.05 0.04 0.03 0.01 0.01 0.00 0.00 0.00 0.00 0.00 0.00 0.00 0.00 0.00 0.00 0.00 0.00 0.00 0.00 0.00 0.00 0.00 0.00 0.00 0.00 0.00 0.01 0.01 0.01 0.01 0.01 0.01 0.01 0.01 0.01 0.01 0.00 0.00 0.00 0.00 0.00
0.13 0.10 0.07 0.05 0.04 0.03 0.01 0.01 0.00 0.00 0.00 0.00 0.00 0.00 0.00 0.00 0.00 0.00 0.00 0.00 0.00 0.00 0.00 0.00 0.00 0.00 0.00 0.00 0.00 0.01 0.01 0.02 0.02 0.01 0.01 0.01 0.01 0.01 0.01 0.01 0.01 0.00 0.00
0.10 0.10 0.09 0.06 0.04 0.02 0.02 0.01 0.00 0.00 0.00 0.00 0.00 0.00 0.00 0.00 0.00 0.00 0.00 0.00 0.00 0.00 0.00 0.00 0.00 0.00 0.00 0.00 0.00 0.01 0.01 0.01 0.01 0.01 0.01 0.01 0.01 0.01 0.02 0.02 0.01 0.01 0.01
0.11 0.09 0.07 0.06 0.04 0.02 0.02 0.01 0.01 0.00 0.00 0.00 0.00 0.00 0.00 0.00 0.00 0.00 0.00 0.00 0.00 0.00 0.00 0.00 0.00 0.00 0.00 0.00 0.01 0.00 0.01 0.01 0.01 0.01 0.01 0.01 0.01 0.01 0.01 0.01 0.02 0.02 0.02
0.13 0.11 0.09 0.06 0.04 0.03 0.02 0.02 0.02 0.01 0.01 0.00 0.00 0.00 0.00 0.00 0.00 0.00 0.00 0.00 0.00 0.00 0.00 0.00 0.00 0.00 0.00 0.00 0.01 0.01 0.01 0.01 0.01 0.01 0.01 0.01 0.01 0.01 0.01 0.02 0.02 0.02 0.02
0.18 0.16 0.13 0.10 0.08 0.05 0.04 0.04 0.03 0.02 0.01 0.01 0.01 0.01 0.01 0.00 0.00 0.00 0.00 0.00 0.00 0.00 0.00 0.00 0.00 0.00 0.00 0.00 0.00 0.01 0.01 0.01 0.01 0.01 0.02 0.02 0.01 0.01 0.01 0.02 0.01 0.01 0.01
0.18 0.19 0.19 0.15 0.12 0.10 0.07 0.05 0.04 0.03 0.02 0.02 0.02 0.02 0.02 0.01 0.01 0.00 0.00 0.00 0.00 0.00 0.00 0.00 0.00 0.00 0.00 0.00 0.01 0.01 0.01 0.00 0.01 0.01 0.02 0.02 0.02 0.02 0.02 0.02 0.02 0.02 0.01
0.17 0.17 0.18 0.19 0.15 0.12 0.10 0.07 0.05 0.04 0.03 0.03 0.03 0.03 0.03 0.02 0.02 0.01 0.01 0.00 0.00 0.00 0.00 0.00 0.00 0.00 0.01 0.01 0.01 0.01 0.01 0.01 0.01 0.01 0.01 0.01 0.02 0.02 0.03 0.03 0.02 0.02 0.01
0.20 0.18 0.17 0.17 0.17 0.15 0.12 0.10 0.08 0.06 0.05 0.04 0.04 0.03 0.03 0.03 0.02 0.02 0.01 0.01 0.01 0.01 0.01 0.01 0.01 0.01 0.01 0.01 0.01 0.02 0.01 0.01 0.00 0.00 0.01 0.01 0.01 0.02 0.02 0.02 0.01 0.01 0.01
0.21 0.20 0.19 0.17 0.16 0.14 0.12 0.11 0.10 0.07 0.06 0.06 0.06 0.05 0.04 0.03 0.03 0.03 0.03 0.02 0.02 0.01 0.01 0.01 0.01 0.02 0.02 0.02 0.01 0.01 0.01 0.00 0.00 0.00 0.01 0.01 0.01 0.01 0.01 0.01 0.01 0.01 0.01
0.18 0.18 0.20 0.20 0.17 0.14 0.13 0.12 0.11 0.08 0.06 0.06 0.05 0.05 0.06 0.05 0.05 0.04 0.04 0.04 0.04 0.03 0.03 0.02 0.02 0.02 0.02 0.02 0.01 0.01 0.01 0.01 0.00 0.00 0.01 0.00 0.00 0.00 0.00 0.00 0.01 0.01 0.00
0.20 0.19 0.20 0.22 0.22 0.18 0.15 0.15 0.13 0.10 0.09 0.08 0.06 0.06 0.05 0.05 0.06 0.05 0.04 0.04 0.05 0.05 0.03 0.02 0.01 0.01 0.01 0.01 0.02 0.01 0.01 0.01 0.00 0.00 0.00 0.00 0.00 0.00 0.00 0.00 0.00 0.00 0.00
0.19 0.19 0.20 0.21 0.21 0.20 0.18 0.16 0.15 0.14 0.13 0.11 0.10 0.09 0.08 0.08 0.07 0.07 0.07 0.06 0.06 0.07 0.05 0.03 0.02 0.02 0.02 0.01 0.01 0.01 0.01 0.01 0.00 0.00 0.00 0.00 0.00 0.00 0.00 0.00 0.00 0.00 0.00
0.19 0.19 0.19 0.20 0.20 0.20 0.20 0.17 0.14 0.12 0.12 0.11 0.10 0.10 0.09 0.09 0.09 0.09 0.09 0.09 0.09 0.09 0.08 0.05 0.04 0.04 0.04 0.03 0.02 0.01 0.01 0.01 0.00 0.00 0.00 0.00 0.00 0.00 0.00 0.00 0.00 0.00 0.01
0.18 0.18 0.18 0.19 0.19 0.19 0.18 0.17 0.15 0.13 0.12 0.10 0.09 0.08 0.07 0.07 0.07 0.07 0.08 0.08 0.08 0.09 0.09 0.08 0.06 0.05 0.04 0.04 0.04 0.03 0.02 0.01 0.01 0.01 0.01 0.01 0.00 0.00 0.00 0.00 0.00 0.01 0.01
0.18 0.17 0.17 0.18 0.18 0.17 0.16 0.16 0.15 0.14 0.12 0.11 0.09 0.09 0.09 0.09 0.10 0.09 0.09 0.09 0.09 0.10 0.10 0.10 0.09 0.07 0.05 0.04 0.04 0.04 0.03 0.03 0.02 0.02 0.02 0.02 0.01 0.01 0.01 0.00 0.01 0.01 0.01
0.16 0.17 0.18 0.17 0.17 0.18 0.18 0.16 0.15 0.14 0.13 0.11 0.10 0.09 0.08 0.07 0.07 0.07 0.08 0.09 0.10 0.11 0.11 0.12 0.11 0.09 0.07 0.06 0.06 0.06 0.05 0.04 0.04 0.03 0.03 0.02 0.02 0.01 0.01 0.00 0.01 0.01 0.02
0.16 0.16 0.17 0.17 0.15 0.14 0.14 0.14 0.13 0.12 0.10 0.09 0.08 0.08 0.08 0.08 0.09 0.09 0.09 0.10 0.10 0.11 0.11 0.11 0.11 0.10 0.09 0.07 0.07 0.06 0.06 0.06 0.05 0.04 0.03 0.02 0.01 0.01 0.00 0.00 0.00 0.00 0.01
0.15 0.15 0.15 0.16 0.16 0.15 0.14 0.13 0.12 0.12 0.11 0.10 0.09 0.08 0.08 0.09 0.10 0.11 0.11 0.10 0.10 0.11 0.11 0.11 0.10 0.08 0.07 0.06 0.05 0.06 0.06 0.06 0.05 0.03 0.03 0.02 0.02 0.01 0.01 0.00 0.00 0.00 0.00
0.08 0.09 0.10 0.11 0.12 0.13 0.14 0.13 0.11 0.10 0.10 0.10 0.09 0.09 0.09 0.09 0.10 0.08 0.08 0.08 0.07 0.08 0.08 0.08 0.08 0.07 0.06 0.06 0.06 0.06 0.05 0.04 0.03 0.02 0.02 0.02 0.02 0.01 0.01 0.00 0.00 0.00 0.00
0.02 0.04 0.05 0.07 0.08 0.09 0.10 0.11 0.12 0.11 0.10 0.09 0.08 0.08 0.08 0.08 0.08 0.08 0.08 0.08 0.07 0.06 0.06 0.06 0.06 0.06 0.06 0.06 0.07 0.07 0.06 0.06 0.05 0.03 0.02 0.02 0.01 0.01 0.00 0.00 0.00 0.00 0.00
0.01 0.01 0.02 0.04 0.06 0.07 0.09 0.09 0.09 0.10 0.11 0.11 0.10 0.09 0.08 0.07 0.08 0.09 0.08 0.07 0.07 0.06 0.06 0.06 0.06 0.06 0.06 0.05 0.05 0.05 0.05 0.05 0.04 0.03 0.02 0.02 0.01 0.01 0.01 0.00 0.00 0.00 0.00
0.00 0.00 0.01 0.01 0.02 0.04 0.06 0.07 0.08 0.08 0.08 0.08 0.09 0.09 0.10 0.09 0.09 0.08 0.07 0.07 0.07 0.06 0.05 0.05 0.06 0.06 0.05 0.05 0.05 0.04 0.03 0.03 0.03 0.02 0.02 0.02 0.01 0.01 0.01 0.01 0.00 0.00 0.00
MSLP
1014.13 1014.57 1015.01 1015.43 1015.85 1016.27 1016.69 1017.09 1017.48 1017.82 1018.12 1018.37 1018.55 1018.67 1018.74 1018.78 1018.80 1018.83 1018.87 1018.93 1019.01 1019.11 1019.20 1019.28 1019.33 1019.34 1019.30 1019.22 1019.11 1019.01 1018.91 1018.86 1018.87 1018.94 1019.06 1019.23 1019.41 1019.59 1019.73 1019.81 1019.83 1019.80 1019.71
1013.76 1014.19 1014.64 1015.10 1015.58 1016.06 1016.55 1017.02 1017.46 1017.84 1018.15 1018.37 1018.52 1018.61 1018.63 1018.63 1018.62 1018.63 1018.67 1018.74 1018.84 1018.97 1019.09 1019.19 1019.25 1019.26 1019.21 1019.12 1018.99 1018.85 1018.74 1018.66 1018.65 1018.70 1018.82 1018.99 1019.18 1019.37 1019.53 1019.64 1019.69 1019.67 1019.60
1013.38 1013.81 1014.27 1014.77 1015.31 1015.86 1016.42 1016.95 1017.43 1017.84 1018.15 1018.36 1018.48 1018.52 1018.51 1018.48 1018.44 1018.44 1018.47 1018.55 1018.66 1018.80 1018.94 1019.07 1019.14 1019.17 1019.13 1019.05 1018.92 1018.78 1018.66 1018.57 1018.54 1018.58 1018.68 1018.84 1019.02 1019.21 1019.38 1019.50 1019.56 1019.57 1019.51
1013.04 1013.47 1013.95 1014.49 1015.07 1015.67 1016.28 1016.86 1017.37 1017.79 1018.10 1018.30 1018.39 1018.41 1018.37 1018.32 1018.27 1018.25 1018.29 1018.37 1018.49 1018.64 1018.80 1018.93 1019.03 1019.08 1019.08 1019.02 1018.92 1018.80 1018.69 1018.61 1018.57 1018.59 1018.67 1018.80 1018.95 1019.12 1019.28 1019.40 1019.47 1019.49 1019.45
1012.77 1013.20 1013.69 1014.25 1014.85 1015.49 1016.12 1016.71 1017.23 1017.65 1017.96 1018.14 1018.23 1018.24 1018.20 1018.14 1018.10 1018.09 1018.13 1018.21 1018.34 1018.49 1018.65 1018.80 1018.92 1019.00 1019.04 1019.02 1018.97 1018.90 1018.82 1018.75 1018.71 1018.71 1018.75 1018.83 1018.95 1019.08 1019.21 1019.32 1019.40 1019.43 1019.41
1012.55 1012.98 1013.47 1014.03 1014.64 1015.27 1015.89 1016.48 1016.98 1017.39 1017.69 1017.87 1017.97 1017.99 1017.98 1017.95 1017.93 1017.94 1017.99 1018.08 1018.21 1018.35 1018.51 1018.67 1018.81 1018.92 1019.00 1019.04 1019.05 1019.03 1018.99 1018.93 1018.89 1018.86 1018.87 1018.90 1018.96 1019.05 1019.15 1019.24 1019.32 1019.37 1019.37
1012.34 1012.76 1013.24 1013.78 1014.36 1014.96 1015.55 1016.10 1016.58 1016.97 1017.26 1017.46 1017.59 1017.66 1017.69 1017.72 1017.75 1017.80 1017.87 1017.97 1018.09 1018.22 1018.37 1018.53 1018.68 1018.82 1018.94 1019.04 1019.10 1019.13 1019.13 1019.09 1019.04 1018.99 1018.94 1018.92 1018.93 1018.97 1019.04 1019.13 1019.22 1019.29 1019.33
1012.07 1012.48 1012.93 1013.44 1013.97 1014.53 1015.07 1015.57 1016.02 1016.39 1016.69 1016.92 1017.10 1017.23 1017.34 1017.44 1017.53 1017.63 1017.73 1017.83 1017.95 1018.07 1018.20 1018.35 1018.51 1018.67 1018.82 1018.97 1019.08 1019.15 1019.17 1019.15 1019.09 1019.01 1018.92 1018.84 1018.80 1018.81 1018.86 1018.96 1019.07 1019.19 1019.29
1011.69 1012.07 1012.50 1012.96 1013.45 1013.94 1014.43 1014.89 1015.31 1015.68 1015.99 1016.27 1016.51 1016.72 1016.92 1017.09 1017.26 1017.40 1017.53 1017.65 1017.76 1017.86 1017.98 1018.11 1018.26 1018.44 1018.62 1018.79 1018.94 1019.04 1019.09 1019.07 1019.00 1018.89 1018.76 1018.65 1018.58 1018.56 1018.62 1018.73 1018.89 1019.07 1019.23
1011.17 1011.53 1011.92 1012.34 1012.78 1013.23 1013.67 1014.09 1014.49 1014.86 1015.21 1015.54 1015.85 1016.14 1016.42 1016.68 1016.90 1017.09 1017.25 1017.37 1017.47 1017.56 1017.66 1017.78 1017.93 1018.11 1018.31 1018.51 1018.68 1018.80 1018.86 1018.85 1018.76 1018.63 1018.49 1018.35 1018.27 1018.26 1018.33 1018.48 1018.69 1018.94 1019.18
1010.55 1010.87 1011.23 1011.61 1012.01 1012.43 1012.84 1013.24 1013.64 1014.03 1014.41 1014.78 1015.16 1015.52 1015.86 1016.18 1016.45 1016.67 1016.84 1016.96 1017.06 1017.14 1017.23 1017.35 1017.50 1017.69 1017.91 1018.13 1018.31 1018.45 1018.52 1018.51 1018.43 1018.30 1018.15 1018.01 1017.94 1017.95 1018.05 1018.25 1018.52 1018.83 1019.13
1009.88 1010.18 1010.50 1010.86 1011.24 1011.62 1012.02 1012.42 1012.82 1013.22 1013.64 1014.05 1014.47 1014.88 1015.26 1015.60 1015.89 1016.12 1016.29 1016.42 1016.51 1016.59 1016.68 1016.81 1016.98 1017.19 1017.43 1017.66 1017.87 1018.03 1018.12 1018.12 1018.05 1017.94 1017.81 1017.70 1017.65 1017.69 1017.83 1018.07 1018.38 1018.74 1019.09
1009.29 1009.56 1009.86 1010.19 1010.54 1010.92 1011.30 1011.70 1012.11 1012.52 1012.95 1013.39 1013.82 1014.24 1014.62 1014.97 1015.25 1015.46 1015.62 1015.73 1015.82 1015.91 1016.02 1016.17 1016.38 1016.62 1016.89 1017.16 1017.40 1017.58 1017.70 1017.73 1017.69 1017.61 1017.52 1017.45 1017.45 1017.52 1017.69 1017.96 1018.30 1018.68 1019.05
1008.89 1009.12 1009.39 1009.70 1010.03 1010.39 1010.76 1011.15 1011.55 1011.97 1012.39 1012.82 1013.24 1013.63 1013.98 1014.29 1014.53 1014.71 1014.84 1014.94 1015.03 1015.14 1015.28 1015.48 1015.72 1016.01 1016.32 1016.63 1016.91 1017.14 1017.29 1017.37 1017.39 1017.36 1017.33 1017.31 1017.35 1017.46 1017.65 1017.93 1018.27 1018.63 1018.99
1008.78 1008.97 1009.21 1009.48 1009.77 1010.10 1010.45 1010.81 1011.19 1011.58 1011.98 1012.37 1012.74 1013.07 1013.36 1013.60 1013.78 1013.91 1014.01 1014.09 1014.19 1014.32 1014.50 1014.73 1015.03 1015.38 1015.74 1016.10 1016.43 1016.71 1016.92 1017.06 1017.14 1017.18 1017.21 1017.26 1017.34 1017.48 1017.69 1017.94 1018.25 1018.57 1018.88
1009.03 1009.17 1009.35 1009.56 1009.81 1010.09 1010.39 1010.70 1011.04 1011.38 1011.72 1012.05 1012.34 1012.59 1012.80 1012.95 1013.05 1013.12 1013.17 1013.23 1013.33 1013.48 1013.70 1013.98 1014.33 1014.73 1015.15 1015.56 1015.94 1016.27 1016.54 1016.75 1016.91 1017.04 1017.14 1017.26 1017.39 1017.55 1017.74 1017.97 1018.22 1018.47 1018.72
1009.64 1009.72 1009.83 1009.97 1010.15 1010.35 1010.58 1010.83 1011.09 1011.36 1011.62 1011.86 1012.06 1012.22 1012.32 1012.37 1012.39 1012.39 1012.39 1012.43 1012.52 1012.68 1012.92 1013.24 1013.63 1014.07 1014.52 1014.98 1015.41 1015.79 1016.13 1016.42 1016.66 1016.87 1017.06 1017.24 1017.41 1017.59 1017.78 1017.96 1018.15 1018.32 1018.49
1010.56 1010.57 1010.60 1010.66 1010.74 1010.85 1010.98 1011.14 1011.31 1011.49 1011.66 1011.80 1011.90 1011.96 1011.96 1011.92 1011.85 1011.77 1011.72 1011.71 1011.78 1011.94 1012.18 1012.52 1012.93 1013.38 1013.86 1014.35 1014.81 1015.24 1015.64 1016.00 1016.33 1016.62 1016.89 1017.14 1017.37 1017.57 1017.75 1017.90 1018.02 1018.13 1018.21
1011.70 1011.63 1011.57 1011.53 1011.51 1011.51 1011.54 1011.59 1011.67 1011.75 1011.82 1011.86 1011.86 1011.81 1011.72 1011.58 1011.43 1011.28 1011.16 1011.11 1011.14 1011.27 1011.49 1011.82 1012.21 1012.67 1013.15 1013.64 1014.13 1014.60 1015.05 1015.47 1015.88 1016.26 1016.61 1016.93 1017.22 1017.45 1017.63 1017.76 1017.84 1017.89 1017.93
1012.93 1012.79 1012.65 1012.51 1012.38 1012.27 1012.19 1012.14 1012.11 1012.09 1012.06 1012.01 1011.92 1011.78 1011.59 1011.37 1011.13 1010.90 1010.72 1010.60 1010.58 1010.66 1010.85 1011.13 1011.49 1011.92 1012.38 1012.87 1013.37 1013.86 1014.35 1014.83 1015.31 1015.77 1016.20 1016.60 1016.95 1017.22 1017.43 1017.56 1017.63 1017.66 1017.66
1014.15 1013.94 1013.72 1013.49 1013.26 1013.05 1012.87 1012.72 1012.60 1012.48 1012.36 1012.22 1012.04 1011.82 1011.55 1011.25 1010.93 1010.62 1010.36 1010.17 1010.08 1010.09 1010.21 1010.44 1010.75 1011.14 1011.57 1012.05 1012.54 1013.05 1013.57 1014.11 1014.65 1015.18 1015.69 1016.16 1016.57 1016.90 1017.15 1017.32 1017.40 1017.44 1017.44
1015.24 1014.98 1014.69 1014.38 1014.08 1013.78 1013.52 1013.28 1013.07 1012.87 1012.67 1012.45 1012.19 1011.89 1011.54 1011.16 1010.76 1010.37 1010.03 1009.76 1009.59 1009.53 1009.58 1009.74 1010.00 1010.34 1010.74 1011.20 1011.69 1012.21 1012.77 1013.34 1013.93 1014.53 1015.10 1015.64 1016.12 1016.52 1016.83 1017.04 1017.17 1017.24 1017.27
1016.13 1015.83 1015.49 1015.13 1014.77 1014.41 1014.07 1013.76 1013.48 1013.21 1012.94 1012.64 1012.32 1011.94 1011.52 1011.06 1010.58 1010.12 1009.69 1009.33 1009.08 1008.93 1008.91 1009.01 1009.22 1009.53 1009.91 1010.35 1010.85 1011.40 1011.98 1012.59 1013.23 1013.87 1014.50 1015.10 1015.64 1016.10 1016.48 1016.75 1016.94 1017.07 1017.15
1016.76 1016.44 1016.08 1015.69 1015.29 1014.88 1014.50 1014.13 1013.79 1013.46 1013.12 1012.77 1012.37 1011.93 1011.44 1010.91 1010.35 1009.80 1009.29 1008.85 1008.51 1008.30 1008.21 1008.26 1008.43 1008.72 1009.10 1009.55 1010.08 1010.65 1011.26 1011.91 1012.58 1013.26 1013.93 1014.56 1015.15 1015.67 1016.10 1016.45 1016.71 1016.90 1017.04
1017.15 1016.82 1016.45 1016.04 1015.61 1015.18 1014.76 1014.36 1013.97 1013.58 1013.20 1012.78 1012.33 1011.83 1011.27 1010.67 1010.04 1009.41 1008.82 1008.31 1007.89 1007.61 1007.47 1007.49 1007.64 1007.93 1008.33 1008.82 1009.38 1009.99 1010.64 1011.33 1012.02 1012.72 1013.41 1014.07 1014.68 1015.24 1015.72 1016.13 1016.46 1016.72 1016.92
1017.32 1016.98 1016.61 1016.19 1015.76 1015.31 1014.86 1014.43 1014.01 1013.58 1013.15 1012.70 1012.19 1011.64 1011.02 1010.36 1009.66 1008.96 1008.30 1007.71 1007.23 1006.89 1006.72 1006.71 1006.87 1007.18 1007.61 1008.15 1008.77 1009.43 1010.13 1010.84 1011.56 1012.27 1012.96 1013.62 1014.24 1014.81 1015.33 1015.78 1016.17 1016.49 1016.77
Thickness
5688 5687 5687 5687 5687 5686 5685 5685 5684 5684 5683 5683 5683 5683 5683 5683 5683 5682 5682 5682 5681 5680 5679 5678 5677 5676 5675 5674 5673 5671 5670 5668 5666 5664 5662 5660 5658 5656 5654 5651 5649 5647 5645
5682 5682 5682 5681 5681 5681 5680 5680 5679 5678 5678 5678 5678 5679 5679 5678 5678 5678 5678 5678 5677 5676 5675 5674 5673 5672 5671 5669 5668 5667 5665 5663 5662 5660 5658 5656 5654 5652 5649 5647 5645 5643 5641
5677 5677 5676 5676 5676 5675 5674 5673 5673 5672 5672 5672 5673 5673 5674 5674 5674 5674 5674 5673 5673 5672 5671 5669 5668 5667 5666 5665 5663 5662 5660 5659 5657 5655 5653 5651 5649 5647 5645 5642 5640 5639 5637
5671 5670 5671 5671 5671 5669 5668 5668 5667 5666 5666 5666 5667 5668 5668 5668 5669 5669 5669 5668 5668 5667 5666 5665 5663 5662 5661 5660 5658 5657 5655 5653 5651 5649 5648 5646 5644 5642 5640 5638 5636 5634 5632
5665 5665 5665 5665 5664 5663 5662 5662 5661 5661 5660 5660 5660 5661 5662 5662 5663 5663 5663 5663 5663 5662 5661 5660 5658 5657 5656 5654 5653 5651 5650 5648 5646 5644 5642 5641 5639 5637 5635 5634 5632 5630 5627
5660 5660 5659 5659 5658 5657 5657 5657 5656 5655 5655 5654 5654 5654 5655 5656 5657 5657 5658 5658 5658 5657 5656 5654 5653 5651 5650 5648 5647 5646 5644 5642 5640 5639 5637 5635 5633 5632 5630 5628 5627 5625 5622
5654 5655 5655 5654 5653 5653 5653 5653 5650 5648 5647 5646 5644 5644 5646 5648 5650 5651 5652 5652 5652 5651 5650 5648 5647 5645 5643 5642 5641 5639 5638 5636 5634 5633 5631 5629 5627 5626 5624 5623 5621 5619 5617
5649 5650 5650 5650 5649 5648 5647 5646 5645 5643 5642 5641 5640 5636 5635 5638 5642 5645 5645 5645 5645 5644 5643 5642 5640 5638 5637 5635 5634 5633 5631 5630 5628 5627 5625 5623 5622 5620 5618 5617 5615 5613 5611
5644 5645 5646 5646 5645 5644 5644 5644 5642 5640 5638 5636 5637 5635 5631 5631 5633 5635 5637 5637 5637 5636 5635 5634 5633 5631 5630 5628 5627 5625 5624 5623 5621 5620 5618 5617 5615 5614 5612 5611 5609 5607 5604
5638 5639 5639 5640 5640 5640 5639 5639 5639 5638 5635 5632 5630 5631 5632 5632 5627 5626 5627 5628 5628 5628 5628 5627 5626 5625 5623 5621 5619 5618 5617 5615 5614 5612 5611 5610 5608 5607 5606 5604 5602 5599 5598
5631 5634 5635 5635 5635 5636 5635 5634 5633 5633 5632 5630 5627 5625 5623 5623 5623 5620 5619 5619 5619 5620 5620 5620 5618 5617 5616 5614 5612 5611 5610 5608 5606 5605 5604 5602 5601 5600 5599 5597 5595 5593 5591
5624 5628 5630 5630 5630 5631 5631 5630 5629 5628 5627 5626 5624 5622 5621 5619 5618 5616 5614 5613 5613 5613 5612 5612 5611 5609 5608 5606 5605 5604 5602 5600 5598 5597 5596 5594 5592 5591 5590 5589 5587 5585 5583
5618 5623 5624 5625 5626 5627 5627 5625 5624 5623 5622 5620 5619 5619 5618 5617 5615 5612 5609 5606 5604 5604 5603 5603 5604 5603 5600 5599 5597 5595 5594 5592 5590 5589 5587 5586 5583 5582 5580 5579 5578 5576 5574
5613 5616 5619 5620 5621 5622 5621 5619 5618 5618 5616 5614 5613 5613 5611 5611 5609 5607 5605 5600 5596 5595 5595 5596 5596 5595 5593 5592 5590 5587 5585 5583 5581 5580 5578 5576 5574 5572 5571 5569 5567 5566 5564
5606 5610 5613 5615 5615 5615 5615 5614 5613 5612 5611 5609 5608 5607 5605 5604 5602 5601 5599 5597 5593 5591 5592 5592 5588 5588 5585 5583 5582 5579 5576 5574 5571 5570 5568 5566 5564 5562 5561 5559 5558 5556 5555
5598 5602 5605 5607 5607 5607 5607 5607 5606 5605 5604 5603 5601 5599 5598 5597 5595 5593 5592 5590 5589 5587 5586 5586 5582 5580 5576 5573 5572 5569 5567 5564 5562 5561 5559 5557 5554 5553 5551 5550 5548 5546 5545
5589 5594 5596 5598 5599 5600 5599 5598 5598 5597 5596 5594 5593 5592 5591 5588 5587 5585 5584 5582 5580 5578 5577 5574 5570 5568 5566 5564 5561 5558 5557 5555 5552 5551 5549 5548 5546 5544 5542 5540 5539 5537 5536
5581 5585 5587 5588 5590 5591 5590 5590 5589 5588 5587 5586 5584 5583 5581 5579 5578 5576 5574 5572 5571 5569 5567 5564 5559 5556 5555 5554 5551 5548 5546 5544 5542 5540 5539 5538 5536 5534 5532 5530 5529 5527 5526
5571 5574 5576 5578 5580 5581 5581 5581 5580 5579 5578 5576 5575 5573 5571 5569 5567 5565 5564 5563 5561 5558 5557 5554 5551 5546 5544 5542 5539 5536 5534 5533 5531 5529 5528 5528 5526 5525 5523 5521 5519 5517 5516
5562 5563 5565 5567 5569 5570 5570 5570 5569 5568 5567 5565 5564 5563 5561 5559 5557 5555 5553 5552 5549 5547 5544 5542 5539 5535 5533 5531 5529 5526 5523 5521 5520 5519 5518 5517 5516 5515 5513 5512 5510 5508 5507
5549 5551 5553 5555 5556 5557 5558 5559 5558 5557 5555 5554 5552 5551 5549 5547 5545 5544 5542 5541 5538 5536 5533 5531 5528 5525 5522 5520 5520 5517 5514 5510 5508 5507 5506 5505 5505 5504 5503 5502 5500 5498 5497
5536 5539 5540 5541 5542 5542 5544 5546 5546 5544 5543 5541 5540 5538 5535 5533 5531 5530 5529 5529 5527 5525 5523 5520 5518 5517 5517 5514 5510 5505 5502 5498 5497 5496 5494 5493 5494 5493 5492 5491 5490 5489 5487
5523 5525 5525 5526 5526 5527 5529 5531 5532 5530 5529 5527 5525 5523 5520 5518 5516 5514 5514 5514 5513 5512 5511 5509 5507 5507 5505 5503 5498 5493 5492 5491 5491 5487 5483 5482 5481 5481 5481 5480 5479 5479 5478
5510 5511 5511 5511 5511 5512 5513 5514 5514 5514 5512 5510 5508 5506 5503 5501 5498 5497 5496 5495 5495 5494 5494 5493 5493 5494 5492 5491 5487 5485 5482 5476 5473 5472 5473 5472 5469 5469 5469 5469 5470 5469 5469
5496 5496 5496 5496 5496 5496 5496 5496 5496 5494 5492 5491 5489 5486 5484 5482 5481 5480 5478 5477 5477 5476 5475 5475 5476 5476 5475 5475 5473 5468 5465 5463 5461 5459 5458 5460 5458 5456 5455 5457 5458 5459 5459
5481 5481 5481 5480 5479 5479 5479 5478 5477 5474 5472 5470 5468 5465 5462 5461 5461 5460 5458 5458 5458 5458 5457 5457 5456 5457 5457 5457 5458 5458 5456 5453 5451 5448 5447 5447 5446 5445 5445 5445 5446 5448 5449